| time (UTC) | temp F | wind direction | speed knots | gust knots | rain 1hr in | rain 24hr in | rain mn in | humidity % | barometer mb |
| 20260503224830 | 56 | 167 | 4.3 | 6.1 | 0.00 | 0.00 | 0.00 | 68 | 1016.9 |
| 20260503224329 | 55 | 165 | 4.3 | 7.0 | 0.00 | 0.00 | 0.00 | 67 | 1016.9 |
| 20260503223830 | 56 | 153 | 4.3 | 7.0 | 0.00 | 0.00 | 0.00 | 68 | 1016.9 |
| 20260503223540 | 56 | 198 | 4.3 | 7.8 | 0.00 | 0.00 | 0.00 | 68 | 1016.9 |
| 20260503222829 | 56 | 163 | 5.2 | 7.8 | 0.00 | 0.00 | 0.00 | 67 | 1016.9 |
| 20260503222329 | 56 | 175 | 4.3 | 7.0 | 0.00 | 0.00 | 0.00 | 67 | 1016.9 |
| 20260503221830 | 56 | 119 | 5.2 | 7.0 | 0.00 | 0.00 | 0.00 | 69 | 1016.9 |
| 20260503221329 | 56 | 176 | 4.3 | 7.0 | 0.00 | 0.00 | 0.00 | 67 | 1016.9 |
| 20260503220832 | 56 | 209 | 4.3 | 7.0 | 0.00 | 0.00 | 0.00 | 66 | 1016.9 |
| 20260503220331 | 56 | 151 | 5.2 | 7.0 | 0.00 | 0.00 | 0.00 | 66 | 1016.9 |
| 20260503215829 | 56 | 120 | 5.2 | 7.8 | 0.00 | 0.00 | 0.00 | 67 | 1017.0 |
| 20260503215332 | 56 | 120 | 4.3 | 7.8 | 0.00 | 0.00 | 0.00 | 65 | 1016.9 |
| 20260503215041 | 56 | 131 | 4.3 | 7.8 | 0.00 | 0.00 | 0.00 | 66 | 1016.8 |
| 20260503214328 | 56 | 137 | 4.3 | 6.1 | 0.00 | 0.00 | 0.00 | 66 | 1017.0 |
| 20260503213825 | 56 | 130 | 4.3 | 6.1 | 0.00 | 0.00 | 0.00 | 67 | 1016.9 |
| 20260503213316 | 57 | 68 | 4.3 | 6.1 | 0.00 | 0.00 | 0.00 | 67 | 1016.8 |
| 20260503212811 | 56 | 141 | 4.3 | 6.1 | 0.00 | 0.00 | 0.00 | 67 | 1016.8 |
| 20260503212306 | 57 | 115 | 5.2 | 7.0 | 0.00 | 0.00 | 0.00 | 67 | 1016.7 |
| 20260503211805 | 56 | 110 | 5.2 | 7.0 | 0.00 | 0.00 | 0.00 | 67 | 1016.6 |
| 20260503211516 | 57 | 151 | 5.2 | 7.8 | 0.00 | 0.00 | 0.00 | 68 | 1016.7 |
| 20260503211015 | 57 | 136 | 4.3 | 7.8 | 0.00 | 0.00 | 0.00 | 66 | 1016.6 |
| 20260503210304 | 57 | 127 | 4.3 | 7.0 | 0.00 | 0.01 | 0.00 | 67 | 1016.6 |
| 20260503205804 | 58 | 112 | 4.3 | 7.8 | 0.00 | 0.01 | 0.00 | 65 | 1016.5 |
| 20260503205304 | 58 | 129 | 4.3 | 7.8 | 0.00 | 0.01 | 0.00 | 66 | 1016.4 |
| 20260503204804 | 58 | 106 | 4.3 | 7.0 | 0.00 | 0.01 | 0.00 | 64 | 1016.5 |
| 20260503204555 | 57 | 129 | 5.2 | 7.0 | 0.00 | 0.01 | 0.00 | 66 | 1016.5 |
| 20260503204520 | 57 | 129 | 5.2 | 7.0 | 0.00 | 0.01 | 0.00 | 66 | 1016.5 |
| 20260503203804 | 57 | 115 | 4.3 | 7.0 | 0.00 | 0.01 | 0.00 | 64 | 1016.6 |
| 20260503203516 | 58 | 75 | 5.2 | 7.0 | 0.00 | 0.01 | 0.00 | 67 | 1016.6 |
| 20260503202804 | 57 | 110 | 5.2 | 7.8 | 0.00 | 0.01 | 0.00 | 66 | 1016.6 |
| 20260503202301 | 58 | 113 | 5.2 | 7.8 | 0.00 | 0.01 | 0.00 | 66 | 1016.6 |
| 20260503202014 | 58 | 109 | 5.2 | 7.8 | 0.00 | 0.01 | 0.00 | 66 | 1016.6 |
| 20260503201302 | 58 | 146 | 5.2 | 7.8 | 0.00 | 0.01 | 0.00 | 65 | 1016.6 |
| 20260503200805 | 58 | 157 | 5.2 | 7.8 | 0.00 | 0.01 | 0.00 | 64 | 1016.6 |
| 20260503200304 | 58 | 129 | 4.3 | 7.0 | 0.00 | 0.02 | 0.00 | 64 | 1016.8 |
| 20260503195803 | 59 | 135 | 4.3 | 7.0 | 0.00 | 0.02 | 0.00 | 65 | 1016.9 |
| 20260503195257 | 59 | 97 | 4.3 | 7.0 | 0.00 | 0.02 | 0.00 | 66 | 1017.0 |
| 20260503194752 | 59 | 94 | 4.3 | 7.0 | 0.00 | 0.02 | 0.00 | 63 | 1017.1 |
| 20260503194246 | 59 | 155 | 4.3 | 6.1 | 0.00 | 0.02 | 0.00 | 65 | 1017.0 |
| 20260503193741 | 60 | 167 | 4.3 | 7.0 | 0.00 | 0.02 | 0.00 | 63 | 1017.0 |
| 20260503193234 | 61 | 111 | 3.5 | 8.7 | 0.00 | 0.02 | 0.00 | 60 | 1017.1 |
| 20260503192943 | 62 | 208 | 2.6 | 8.7 | 0.00 | 0.02 | 0.00 | 50 | 1017.1 |
| 20260503192231 | 62 | 277 | 4.3 | 9.6 | 0.00 | 0.02 | 0.00 | 49 | 1017.0 |
| 20260503191731 | 61 | 314 | 5.2 | 9.6 | 0.00 | 0.02 | 0.00 | 52 | 1016.9 |
| 20260503191235 | 61 | 305 | 5.2 | 8.7 | 0.00 | 0.02 | 0.00 | 49 | 1017.0 |
| 20260503190734 | 61 | 307 | 6.1 | 9.6 | 0.00 | 0.02 | 0.00 | 49 | 1017.1 |
| 20260503190233 | 61 | 278 | 5.2 | 9.6 | 0.00 | 0.02 | 0.00 | 49 | 1017.1 |
| 20260503185946 | 61 | 330 | 4.3 | 11.3 | 0.00 | 0.02 | 0.00 | 50 | 1017.1 |
| 20260503185230 | 61 | 311 | 6.1 | 11.3 | 0.00 | 0.02 | 0.00 | 49 | 1017.2 |
| 20260503184731 | 61 | 302 | 6.1 | 11.3 | 0.00 | 0.02 | 0.00 | 48 | 1017.3 |
| 20260503184230 | 61 | 268 | 5.2 | 11.3 | 0.00 | 0.02 | 0.00 | 49 | 1017.2 |
| 20260503183732 | 61 | 324 | 6.1 | 10.4 | 0.00 | 0.02 | 0.00 | 51 | 1017.3 |
| 20260503183231 | 60 | 314 | 7.8 | 13.9 | 0.00 | 0.02 | 0.00 | 49 | 1017.3 |
| 20260503182944 | 61 | 311 | 7.0 | 13.9 | 0.00 | 0.02 | 0.00 | 49 | 1017.3 |
| 20260503182232 | 61 | 275 | 7.0 | 12.2 | 0.00 | 0.02 | 0.00 | 50 | 1017.3 |
| 20260503181731 | 60 | 313 | 6.1 | 10.4 | 0.00 | 0.02 | 0.00 | 48 | 1017.3 |
| 20260503181443 | 61 | 354 | 6.1 | 11.3 | 0.00 | 0.02 | 0.00 | 49 | 1017.4 |
| 20260503180955 | 61 | 311 | 6.1 | 11.3 | 0.00 | 0.02 | 0.00 | 47 | 1017.4 |
| 20260503180731 | 61 | 311 | 6.1 | 11.3 | 0.00 | 0.02 | 0.00 | 47 | 1017.4 |
| 20260503180231 | 61 | 320 | 6.1 | 12.2 | 0.00 | 0.02 | 0.00 | 48 | 1017.4 |
| 20260503175731 | 61 | 274 | 7.0 | 12.2 | 0.00 | 0.02 | 0.00 | 47 | 1017.2 |
| 20260503175444 | 60 | 328 | 7.8 | 11.3 | 0.00 | 0.02 | 0.00 | 51 | 1017.3 |
| 20260503174953 | 60 | 279 | 7.8 | 13.9 | 0.00 | 0.02 | 0.00 | 47 | 1017.3 |
| 20260503174445 | 60 | 313 | 7.0 | 13.9 | 0.00 | 0.03 | 0.00 | 48 | 1017.3 |
| 20260503173944 | 60 | 326 | 6.1 | 11.3 | 0.00 | 0.03 | 0.00 | 48 | 1017.3 |
| 20260503173447 | 60 | 315 | 6.1 | 12.2 | 0.00 | 0.03 | 0.00 | 50 | 1017.4 |
| 20260503172944 | 61 | 288 | 7.0 | 12.2 | 0.00 | 0.03 | 0.00 | 50 | 1017.4 |
| 20260503172231 | 60 | 319 | 7.0 | 12.2 | 0.00 | 0.03 | 0.00 | 50 | 1017.4 |
| 20260503171731 | 60 | 316 | 5.2 | 12.2 | 0.00 | 0.03 | 0.00 | 49 | 1017.4 |
| 20260503171232 | 60 | 319 | 5.2 | 11.3 | 0.00 | 0.03 | 0.00 | 50 | 1017.4 |
| 20260503170731 | 59 | 313 | 6.1 | 11.3 | 0.00 | 0.03 | 0.00 | 51 | 1017.5 |
| 20260503170231 | 59 | 308 | 6.1 | 12.2 | 0.00 | 0.03 | 0.00 | 48 | 1017.5 |
| 20260503150718 | 57 | 338 | 8.7 | 14.8 | 0.00 | 0.06 | 0.00 | 54 | 1017.5 |
| 20260503150212 | 57 | 28 | 9.6 | 15.6 | 0.00 | 0.06 | 0.00 | 55 | 1017.5 |
| 20260503131155 | 55 | 322 | 7.8 | 12.2 | 0.00 | 0.07 | 0.00 | 60 | 1017.0 |
| 20260503130908 | 55 | 342 | 8.7 | 18.2 | 0.00 | 0.08 | 0.00 | 62 | 1017.1 |
| 20260503130156 | 55 | 46 | 8.7 | 18.2 | 0.00 | 0.08 | 0.00 | 67 | 1016.9 |
| 20260503120152 | 55 | 312 | 8.7 | 17.4 | 0.00 | 0.09 | 0.00 | 67 | 1016.0 |
| 20260503110648 | 52 | 352 | 3.5 | 6.1 | 0.00 | 0.13 | 0.00 | 79 | 1015.3 |
| 20260503110148 | 52 | 335 | 3.5 | 6.1 | 0.00 | 0.13 | 0.00 | 80 | 1015.3 |
| 20260503100144 | 52 | 330 | 4.3 | 7.8 | 0.00 | 0.22 | 0.00 | 77 | 1014.2 |
| 20260503090136 | 52 | 346 | 5.2 | 9.6 | 0.00 | 0.32 | 0.00 | 76 | 1013.7 |
| 20260503081132 | 53 | 332 | 7.0 | 12.2 | 0.00 | 0.39 | 0.00 | 74 | 1013.2 |
| 20260503080846 | 53 | 1 | 6.1 | 12.2 | 0.00 | 0.39 | 0.00 | 75 | 1013.2 |
| 20260503080134 | 53 | 308 | 6.1 | 11.3 | 0.00 | 0.39 | 0.00 | 75 | 1013.1 |
| 20260503072844 | 52 | 313 | 6.1 | 12.2 | 0.00 | 0.39 | 0.00 | 75 | 1012.6 |
| 20260503072130 | 53 | 319 | 6.1 | 11.3 | 0.00 | 0.39 | 0.00 | 76 | 1012.5 |
| 20260503071631 | 53 | 304 | 6.1 | 13.9 | 0.00 | 0.39 | 0.00 | 76 | 1012.4 |
| 20260503071344 | 53 | 338 | 6.1 | 13.9 | 0.00 | 0.39 | 0.00 | 76 | 1012.3 |
| 20260503070633 | 53 | 328 | 5.2 | 11.3 | 0.00 | 0.39 | 0.00 | 75 | 1012.3 |
| 20260503070133 | 53 | 320 | 6.1 | 11.3 | 0.00 | 0.39 | 0.00 | 75 | 1012.1 |
| 20260503060106 | 54 | 328 | 5.2 | 9.6 | 0.00 | 0.39 | 0.00 | 76 | 1011.5 |
| 20260503055104 | 54 | 350 | 4.3 | 8.7 | 0.00 | 0.39 | 0.00 | 77 | 1011.6 |
| 20260503054601 | 54 | 306 | 4.3 | 7.8 | 0.00 | 0.39 | 0.00 | 77 | 1011.7 |
| 20260503054101 | 54 | 311 | 4.3 | 7.8 | 0.00 | 0.39 | 0.00 | 77 | 1011.7 |
| 20260503053814 | 54 | 300 | 4.3 | 7.8 | 0.00 | 0.39 | 0.00 | 78 | 1011.7 |
| 20260503053101 | 54 | 343 | 4.3 | 8.7 | 0.00 | 0.39 | 0.00 | 78 | 1011.7 |
| 20260503052602 | 55 | 302 | 4.3 | 8.7 | 0.00 | 0.39 | 0.00 | 77 | 1011.7 |
| 20260503052102 | 55 | 323 | 4.3 | 8.7 | 0.00 | 0.39 | 0.00 | 77 | 1011.6 |
| 20260503051816 | 55 | 321 | 3.5 | 7.8 | 0.00 | 0.39 | 0.00 | 77 | 1012.0 |
| 20260503051101 | 55 | 322 | 3.5 | 7.8 | 0.00 | 0.39 | 0.00 | 77 | 1011.8 |
| 20260503050602 | 55 | 336 | 3.5 | 7.8 | 0.00 | 0.39 | 0.00 | 77 | 1011.8 |
| 20260503050104 | 55 | 315 | 3.5 | 7.8 | 0.00 | 0.39 | 0.00 | 77 | 1011.9 |
| 20260503045813 | 55 | 311 | 3.5 | 7.0 | 0.00 | 0.39 | 0.00 | 77 | 1011.9 |
| 20260503045057 | 55 | 324 | 3.5 | 7.0 | 0.00 | 0.39 | 0.00 | 77 | 1011.8 |
| 20260503044552 | 55 | 341 | 3.5 | 6.1 | 0.00 | 0.39 | 0.00 | 77 | 1011.7 |
| 20260503044044 | 55 | 334 | 3.5 | 7.8 | 0.00 | 0.42 | 0.00 | 76 | 1012.0 |
| 20260503043538 | 55 | 9 | 3.5 | 7.8 | 0.00 | 0.43 | 0.00 | 76 | 1011.8 |
| 20260503043033 | 55 | 325 | 3.5 | 6.1 | 0.00 | 0.43 | 0.00 | 75 | 1012.0 |
| 20260503042534 | 55 | 335 | 4.3 | 10.4 | 0.00 | 0.43 | 0.00 | 73 | 1011.9 |
| 20260503042034 | 55 | 292 | 5.2 | 10.4 | 0.00 | 0.43 | 0.00 | 72 | 1012.0 |
| 20260503041746 | 55 | 350 | 5.2 | 10.4 | 0.00 | 0.49 | 0.00 | 71 | 1012.1 |
| 20260503041034 | 55 | 9 | 5.2 | 10.4 | 0.00 | 0.50 | 0.00 | 70 | 1012.0 |
| 20260503040534 | 55 | 303 | 5.2 | 8.7 | 0.00 | 0.51 | 0.00 | 70 | 1011.8 |
| 20260503040032 | 55 | 323 | 4.3 | 9.6 | 0.00 | 0.53 | 0.00 | 70 | 1011.8 |
| 20260503035748 | 55 | 347 | 5.2 | 13.0 | 0.00 | 0.53 | 0.53 | 70 | 1011.8 |
| 20260503035032 | 56 | 20 | 7.8 | 13.0 | 0.00 | 0.54 | 0.53 | 72 | 1011.7 |
| 20260503034743 | 56 | 354 | 9.6 | 15.6 | 0.00 | 0.55 | 0.53 | 75 | 1011.7 |
| 20260503034031 | 56 | 344 | 10.4 | 15.6 | 0.00 | 0.55 | 0.53 | 72 | 1011.8 |
| 20260503033531 | 56 | 18 | 10.4 | 15.6 | 0.00 | 0.55 | 0.53 | 72 | 1011.8 |
| 20260503033031 | 56 | 41 | 8.7 | 13.9 | 0.00 | 0.55 | 0.53 | 78 | 1011.6 |
| 20260503032531 | 56 | 47 | 8.7 | 12.2 | 0.00 | 0.55 | 0.53 | 78 | 1011.7 |
| 20260503032031 | 56 | 48 | 8.7 | 11.3 | 0.00 | 0.55 | 0.53 | 76 | 1011.9 |
| 20260503031531 | 56 | 34 | 8.7 | 12.2 | 0.00 | 0.55 | 0.53 | 75 | 1012.0 |
| 20260503031032 | 56 | 44 | 9.6 | 13.0 | 0.00 | 0.55 | 0.53 | 75 | 1012.0 |
| 20260503030529 | 56 | 53 | 10.4 | 15.6 | 0.00 | 0.55 | 0.53 | 74 | 1012.0 |
| 20260503030029 | 56 | 60 | 11.3 | 15.6 | 0.00 | 0.55 | 0.53 | 72 | 1011.7 |
| 20260503025529 | 56 | 52 | 11.3 | 14.8 | 0.00 | 0.55 | 0.53 | 74 | 1011.8 |
| 20260503025030 | 55 | 23 | 10.4 | 14.8 | 0.00 | 0.56 | 0.53 | 74 | 1011.9 |
| 20260503024529 | 55 | 33 | 11.3 | 14.8 | 0.00 | 0.56 | 0.53 | 77 | 1012.0 |
| 20260503024031 | 55 | 56 | 10.4 | 15.6 | 0.00 | 0.56 | 0.53 | 74 | 1011.9 |
| 20260503023529 | 55 | 37 | 10.4 | 15.6 | 0.00 | 0.56 | 0.53 | 76 | 1012.0 |
| 20260503023029 | 55 | 34 | 10.4 | 15.6 | 0.00 | 0.56 | 0.53 | 75 | 1011.8 |
| 20260503022529 | 55 | 59 | 11.3 | 15.6 | 0.00 | 0.57 | 0.53 | 77 | 1011.9 |
| 20260503022030 | 55 | 42 | 11.3 | 15.6 | 0.00 | 0.57 | 0.53 | 77 | 1011.8 |
| 20260503021742 | 56 | 1 | 10.4 | 15.6 | 0.00 | 0.58 | 0.53 | 77 | 1011.7 |
| 20260503021029 | 56 | 11 | 10.4 | 15.6 | 0.00 | 0.59 | 0.53 | 78 | 1011.7 |
| 20260503020529 | 56 | 24 | 10.4 | 14.8 | 0.00 | 0.59 | 0.53 | 78 | 1011.8 |
| 20260503020030 | 56 | 51 | 11.3 | 14.8 | 0.00 | 0.59 | 0.53 | 79 | 1011.8 |
| 20260503015528 | 56 | 44 | 10.4 | 13.9 | 0.00 | 0.59 | 0.53 | 80 | 1011.7 |
| 20260503015030 | 56 | 42 | 10.4 | 13.9 | 0.00 | 0.59 | 0.53 | 80 | 1011.8 |
| 20260503014529 | 56 | 70 | 10.4 | 14.8 | 0.00 | 0.59 | 0.53 | 82 | 1011.9 |
| 20260503014025 | 56 | 25 | 10.4 | 14.8 | 0.00 | 0.59 | 0.53 | 82 | 1011.8 |
| 20260503013521 | 55 | 50 | 10.4 | 14.8 | 0.00 | 0.59 | 0.53 | 82 | 1012.0 |
| 20260503013014 | 56 | 37 | 10.4 | 14.8 | 0.00 | 0.60 | 0.53 | 82 | 1011.8 |
| 20260503012507 | 55 | 39 | 10.4 | 14.8 | 0.00 | 0.60 | 0.53 | 82 | 1011.6 |
| 20260503012004 | 56 | 23 | 9.6 | 14.8 | 0.00 | 0.60 | 0.53 | 82 | 1011.8 |
| 20260503011504 | 56 | 62 | 10.4 | 15.6 | 0.00 | 0.60 | 0.53 | 83 | 1011.6 |
| 20260503011007 | 55 | 20 | 10.4 | 15.6 | 0.00 | 0.60 | 0.53 | 82 | 1011.4 |
| 20260503010507 | 55 | 352 | 10.4 | 16.5 | 0.00 | 0.60 | 0.53 | 83 | 1011.3 |
| 20260503010007 | 56 | 30 | 10.4 | 16.5 | 0.00 | 0.60 | 0.53 | 83 | 1011.3 |
| 20260503005504 | 55 | 33 | 10.4 | 14.8 | 0.00 | 0.60 | 0.53 | 82 | 1011.4 |
| 20260503005004 | 55 | 46 | 10.4 | 14.8 | 0.00 | 0.60 | 0.53 | 83 | 1011.3 |
| 20260503004502 | 55 | 13 | 10.4 | 14.8 | 0.00 | 0.60 | 0.53 | 83 | 1011.3 |
| 20260503004002 | 55 | 35 | 9.6 | 14.8 | 0.00 | 0.60 | 0.53 | 84 | 1011.2 |
| 20260503003501 | 55 | 15 | 9.6 | 13.9 | 0.00 | 0.60 | 0.53 | 85 | 1011.1 |
| 20260503003002 | 55 | 34 | 8.7 | 13.9 | 0.00 | 0.61 | 0.53 | 85 | 1011.1 |
| 20260503002502 | 55 | 35 | 7.8 | 13.0 | 0.00 | 0.61 | 0.53 | 86 | 1011.1 |
| 20260503002002 | 55 | 2 | 7.8 | 12.2 | 0.00 | 0.61 | 0.53 | 86 | 1011.0 |
| 20260503001501 | 55 | 8 | 7.0 | 11.3 | 0.00 | 0.61 | 0.53 | 86 | 1011.1 |
| 20260503001001 | 55 | 37 | 7.0 | 9.6 | 0.00 | 0.61 | 0.53 | 86 | 1011.2 |
| 20260503000501 | 55 | 348 | 7.0 | 9.6 | 0.00 | 0.61 | 0.53 | 86 | 1011.0 |
| 20260503000001 | 55 | 23 | 7.0 | 11.3 | 0.00 | 0.61 | 0.53 | 86 | 1011.0 |
| 20260502235502 | 54 | 11 | 7.8 | 11.3 | 0.00 | 0.61 | 0.53 | 86 | 1010.9 |
| 20260502235002 | 54 | 40 | 7.8 | 10.4 | 0.00 | 0.61 | 0.53 | 86 | 1010.7 |
| 20260502234501 | 54 | 4 | 7.8 | 10.4 | 0.00 | 0.61 | 0.53 | 87 | 1010.8 |
| 20260502234002 | 54 | 58 | 7.8 | 12.2 | 0.00 | 0.61 | 0.53 | 87 | 1010.7 |
| 20260502233502 | 54 | 44 | 8.7 | 12.2 | 0.00 | 0.61 | 0.53 | 86 | 1010.7 |
| 20260502233002 | 54 | 46 | 7.8 | 11.3 | 0.00 | 0.61 | 0.53 | 87 | 1010.4 |
| 20260502232504 | 54 | 59 | 8.7 | 11.3 | 0.00 | 0.61 | 0.53 | 87 | 1010.5 |
| 20260502232001 | 54 | 69 | 8.7 | 11.3 | 0.00 | 0.61 | 0.53 | 87 | 1010.4 |
| 20260502231716 | 54 | 18 | 8.7 | 12.2 | 0.00 | 0.61 | 0.53 | 88 | 1010.5 |
| 20260502231001 | 54 | 33 | 8.7 | 12.2 | 0.00 | 0.61 | 0.53 | 87 | 1010.4 |
| 20260502230502 | 54 | 46 | 8.7 | 12.2 | 0.00 | 0.61 | 0.53 | 87 | 1010.5 |
| 20260502230003 | 54 | 54 | 7.8 | 12.2 | 0.00 | 0.61 | 0.53 | 88 | 1010.5 |
| 20260502225501 | 54 | 48 | 8.7 | 12.2 | 0.00 | 0.61 | 0.53 | 88 | 1010.6 |